Wind_Speed
17 16 16 17 26 31 26 23 22 22 24 21 20 21 21 19 21 19 30 36 41 46 54 58 55 43 31 33 31 23 34 39 35 33 32 29 32 28 26 22 21 22 25
19 18 18 19 19 29 32 26 25 24 24 23 21 19 19 18 23 22 28 34 39 46 55 47 54 49 39 34 30 30 31 38 35 29 31 30 29 26 24 21 21 24 26
23 20 17 19 21 26 30 29 24 25 23 24 22 22 20 21 20 22 26 27 41 42 47 59 59 47 43 36 36 33 33 32 28 26 29 33 29 24 22 20 22 25 23
23 21 15 19 21 24 26 30 33 27 24 22 21 21 23 23 20 20 27 29 32 39 49 45 48 48 43 40 38 37 35 34 30 25 25 26 23 22 23 27 29 26 23
22 20 17 19 19 21 25 29 30 26 24 25 22 19 18 18 23 25 25 29 34 38 50 54 47 46 42 42 44 43 46 41 34 26 22 22 27 32 38 37 31 25 19
25 20 20 16 18 19 22 29 26 24 24 25 27 26 27 26 25 23 23 26 30 35 47 53 46 48 44 43 46 47 38 41 40 38 38 51 50 44 35 32 28 22 15
24 20 20 17 17 21 22 29 26 26 25 26 25 23 23 23 24 27 26 26 27 37 45 48 54 48 48 44 46 42 38 40 40 41 42 41 37 36 33 28 22 17 11
24 23 18 18 15 20 23 27 29 28 28 25 23 24 23 21 20 22 25 27 21 27 39 45 52 53 51 51 46 41 41 44 36 38 38 36 30 28 23 19 16 13 9
24 25 21 20 15 23 22 38 33 31 28 24 22 20 16 17 18 16 18 21 17 19 28 35 46 51 48 48 50 48 41 35 28 28 27 24 23 22 18 15 12 9 8
26 25 23 20 16 25 20 38 34 30 30 27 25 21 18 17 16 14 15 18 19 21 24 27 28 30 34 33 29 33 33 27 24 26 28 26 21 16 13 12 9 5 4
25 25 21 20 20 17 20 37 37 33 33 30 27 24 21 19 18 16 17 19 21 26 27 27 29 29 29 27 23 26 28 31 30 28 26 22 19 16 13 9 6 7 8
22 21 19 18 19 20 23 37 38 36 36 32 30 27 25 21 20 19 19 23 23 27 29 29 28 28 26 26 26 29 33 31 30 27 24 22 18 14 12 11 10 8 5
19 18 17 15 16 19 28 41 38 39 39 36 33 30 28 26 25 26 27 28 31 30 31 32 32 30 29 30 31 33 31 28 27 26 24 21 17 16 15 12 10 9 7
16 14 12 12 13 16 28 28 38 40 43 40 37 35 33 31 30 31 32 34 35 37 37 37 35 34 33 34 34 31 29 27 24 21 21 22 19 16 13 11 10 8 7
11 9 6 4 6 9 20 26 33 43 43 41 40 37 37 36 34 34 36 38 38 39 41 42 40 38 38 36 34 30 26 23 23 23 23 21 18 15 14 12 9 8 7
9 6 2 3 8 9 14 18 14 32 39 40 40 39 36 35 37 37 36 36 38 40 40 40 38 35 35 33 30 28 26 25 24 22 20 18 17 15 13 11 9 7 6
7 6 3 5 12 17 20 21 23 18 18 21 26 30 33 35 29 29 34 38 38 36 35 36 36 33 31 28 27 27 27 25 23 21 19 17 15 13 11 10 8 7 6
8 7 8 10 14 19 24 27 30 31 36 34 25 28 29 31 33 37 42 41 42 36 35 35 33 31 30 30 28 27 25 23 20 18 16 15 13 11 9 7 7 7 7
10 13 14 15 18 22 26 31 36 39 44 47 44 41 38 38 40 41 38 37 36 34 34 33 30 29 29 28 27 25 22 20 18 16 14 12 10 8 7 5 4 4 4
13 15 19 22 24 27 30 35 40 42 43 43 42 39 38 38 37 34 31 31 30 30 30 29 28 27 27 24 22 21 19 17 15 13 11 10 9 7 6 3 3 2 2
13 16 17 21 26 27 30 34 36 36 36 38 36 35 35 34 33 31 30 29 28 27 27 27 25 23 22 21 21 20 18 16 13 11 11 9 6 5 3 2 1 2 2
13 15 17 21 23 27 32 35 36 36 36 35 31 30 28 29 28 28 27 26 25 23 22 23 23 23 22 18 16 14 13 12 11 10 8 6 5 4 2 1 1 2 4
15 17 18 20 24 27 30 30 30 31 31 31 28 27 26 26 26 26 26 25 24 23 22 21 20 19 18 16 13 12 11 10 7 6 6 5 4 2 2 3 3 4 5
17 18 19 21 23 24 25 26 26 27 26 25 23 22 23 23 24 23 22 21 20 20 19 18 16 14 13 11 9 7 6 5 4 4 4 4 3 3 3 4 5 7 6
15 16 17 19 20 22 23 23 23 22 23 22 21 20 20 20 20 20 20 18 17 16 15 13 12 11 9 8 8 6 5 4 4 3 3 3 4 5 6 7 7 8 8
12 14 16 17 18 18 19 19 19 18 18 18 18 17 17 17 17 17 17 16 15 14 13 13 11 9 8 7 6 5 3 2 2 2 3 5 6 7 8 8 8 8 8
Wind_Direction
322 285 279 272 236 216 219 218 226 227 230 233 240 220 220 223 223 229 227 225 212 219 202 203 199 199 202 189 199 201 200 197 187 191 206 204 208 213 218 223 240 254 261
327 314 271 268 254 232 216 219 222 219 234 230 231 225 221 221 219 227 224 221 203 205 203 205 194 196 201 209 200 204 204 199 203 200 202 203 204 209 225 236 254 253 260
327 319 274 264 256 243 228 221 215 214 217 222 228 231 232 225 227 228 227 217 215 216 214 212 208 203 202 212 211 206 212 203 207 213 204 202 207 219 231 236 255 257 250
322 319 292 264 256 249 234 224 216 225 225 232 238 241 236 230 232 232 228 224 216 217 217 214 204 200 203 212 209 214 215 218 207 205 195 201 214 232 242 265 256 243 246
307 315 317 265 263 246 241 228 224 218 220 218 219 212 227 227 227 227 229 230 225 221 218 209 205 202 209 215 217 218 219 209 205 209 219 241 253 257 259 254 242 236 237
305 308 319 288 258 256 244 215 214 218 218 220 226 228 223 224 228 228 235 228 231 233 223 212 210 209 219 215 220 221 217 212 214 221 239 250 255 250 240 235 230 226 228
309 301 312 302 261 259 248 215 221 217 218 220 220 224 222 220 219 219 222 227 233 237 228 218 207 215 214 208 214 214 220 222 229 238 249 249 227 232 230 220 215 217 210
305 298 306 308 260 251 242 217 216 209 206 215 212 215 217 221 221 219 221 215 228 241 224 220 217 220 213 211 218 215 217 219 230 239 240 229 232 221 205 202 189 188 197
307 302 290 301 273 243 246 215 209 204 210 210 208 203 213 212 206 202 201 209 216 217 209 200 204 203 204 212 216 210 205 211 216 219 221 208 189 179 174 181 182 192 194
312 306 291 303 289 256 283 201 205 209 208 204 201 199 206 199 183 178 206 201 199 192 185 186 194 207 211 211 214 220 211 191 200 184 167 162 156 149 157 166 172 161 176
314 306 292 293 280 279 268 206 204 204 203 198 196 191 193 194 182 177 193 201 196 178 175 174 178 191 198 207 206 208 204 179 162 153 147 145 144 143 141 133 145 178 182
318 310 294 300 295 266 252 198 198 199 197 194 188 184 183 187 183 177 188 185 182 175 167 167 169 175 175 173 175 170 161 150 147 145 143 138 139 136 133 145 145 145 142
325 318 306 313 303 233 215 196 197 194 195 188 184 180 177 179 178 182 184 184 177 173 163 161 159 159 160 154 148 143 143 146 144 142 139 136 133 138 139 133 133 131 120
327 321 325 323 311 252 210 195 197 198 188 186 184 180 177 175 177 179 179 175 169 160 155 154 151 148 144 139 136 136 138 141 144 139 131 134 136 133 130 124 117 110 96
331 316 316 324 305 253 211 194 182 190 189 192 190 188 184 177 175 179 178 173 169 162 153 144 143 142 140 139 140 141 141 134 134 135 136 134 131 128 121 115 111 106 98
346 340 347 101 128 149 192 181 172 178 186 183 183 184 178 178 176 178 176 171 162 154 150 145 143 144 142 141 141 136 135 140 137 137 135 133 131 126 117 110 103 102 101
25 32 78 117 117 121 124 154 125 115 149 162 167 168 166 166 159 159 158 154 148 149 147 144 143 144 143 139 136 139 138 140 141 138 135 132 131 126 120 112 100 88 91
57 71 94 109 116 120 122 121 130 124 120 116 127 132 135 140 145 148 151 152 146 152 149 146 144 139 136 141 142 142 141 139 140 138 137 135 134 130 129 117 99 85 86
74 91 97 108 114 119 121 119 115 117 114 115 119 118 122 130 139 145 150 145 142 139 139 139 138 140 144 143 144 145 144 142 142 141 141 143 140 136 139 127 113 89 63
86 105 110 111 118 124 125 123 120 116 113 117 117 121 129 140 136 135 137 136 138 136 135 135 140 142 145 145 143 143 143 143 147 148 148 149 152 148 134 131 122 98 45
90 105 113 116 116 118 117 115 114 109 111 115 123 128 136 135 131 131 131 132 133 134 138 140 141 137 135 138 143 148 151 150 152 150 151 150 145 135 138 150 116 34 16
87 99 107 113 121 124 124 125 123 121 120 119 120 127 134 130 129 128 129 133 135 137 138 137 134 136 143 148 151 150 149 153 152 158 150 145 157 152 168 218 313 346 317
94 99 105 114 120 124 126 125 125 126 125 125 126 126 128 124 127 131 133 136 138 139 140 144 147 148 149 149 150 155 158 160 155 151 156 168 198 170 225 285 312 298 315
102 107 112 117 122 123 123 124 125 124 121 121 123 125 129 132 134 137 137 139 142 144 144 145 146 149 151 153 151 142 142 152 160 173 185 214 247 276 289 288 292 294 303
102 107 109 114 119 120 121 121 122 123 123 123 123 126 130 134 136 136 138 139 139 140 138 138 142 145 142 136 139 155 163 171 179 198 234 260 274 273 276 278 279 286 293
105 110 111 114 116 119 121 123 122 125 125 128 131 133 133 133 133 134 135 138 140 141 143 144 147 152 149 149 157 160 169 184 215 272 286 280 280 283 291 298 294 293 291
Height
1401 1400 1399 1399 1398 1400 1402 1405 1407 1409 1412 1414 1417 1420 1423 1426 1428 1430 1432 1435 1437 1441 1447 1455 1462 1470 1475 1483 1488 1492 1496 1500 1503 1510 1517 1521 1525 1529 1531 1533 1536 1537 1538
1397 1396 1396 1395 1394 1394 1396 1399 1403 1405 1406 1410 1412 1415 1418 1421 1423 1426 1428 1431 1433 1437 1442 1447 1454 1464 1472 1479 1483 1487 1492 1494 1498 1505 1512 1516 1520 1524 1527 1528 1529 1531 1533
1395 1394 1392 1390 1389 1389 1390 1394 1397 1399 1402 1403 1407 1410 1413 1416 1418 1421 1424 1426 1430 1434 1438 1442 1449 1459 1467 1474 1480 1484 1492 1492 1495 1500 1505 1510 1514 1518 1521 1522 1524 1527 1527
1394 1391 1387 1386 1385 1384 1386 1389 1392 1394 1397 1401 1403 1406 1408 1410 1413 1416 1419 1422 1426 1430 1433 1438 1444 1452 1460 1468 1472 1481 1487 1490 1493 1497 1502 1506 1510 1512 1516 1516 1518 1520 1520
1391 1388 1383 1380 1380 1380 1381 1383 1386 1390 1393 1398 1400 1401 1402 1404 1408 1411 1415 1417 1420 1423 1428 1432 1437 1446 1453 1460 1467 1474 1479 1483 1486 1490 1497 1501 1503 1504 1508 1509 1511 1513 1514
1386 1382 1379 1375 1374 1375 1376 1377 1381 1385 1389 1392 1395 1397 1400 1401 1404 1407 1410 1411 1415 1418 1421 1424 1431 1441 1447 1451 1457 1464 1472 1477 1478 1482 1489 1494 1495 1498 1499 1501 1504 1507 1511
1381 1378 1375 1371 1369 1370 1371 1372 1376 1380 1383 1387 1390 1393 1396 1397 1400 1403 1405 1408 1410 1411 1411 1416 1424 1433 1437 1442 1448 1455 1462 1469 1475 1477 1481 1483 1485 1489 1492 1495 1499 1503 1507
1377 1373 1371 1368 1364 1366 1366 1367 1371 1374 1379 1383 1386 1389 1391 1393 1396 1398 1400 1403 1405 1405 1406 1410 1416 1424 1429 1434 1441 1446 1452 1459 1464 1469 1474 1477 1480 1483 1488 1493 1497 1501 1504
1372 1368 1366 1364 1359 1360 1359 1359 1365 1370 1376 1379 1383 1386 1388 1390 1392 1394 1397 1399 1401 1402 1404 1407 1411 1415 1421 1427 1432 1437 1445 1452 1456 1464 1469 1472 1476 1482 1487 1491 1495 1499 1500
1369 1363 1361 1359 1355 1354 1353 1351 1359 1366 1372 1375 1379 1382 1385 1387 1389 1391 1394 1396 1398 1400 1404 1409 1414 1418 1423 1430 1435 1438 1442 1448 1454 1460 1465 1470 1476 1481 1487 1490 1493 1495 1498
1365 1360 1356 1353 1350 1349 1349 1348 1354 1361 1366 1371 1375 1377 1381 1384 1387 1389 1392 1394 1395 1398 1403 1408 1413 1418 1423 1428 1433 1436 1440 1445 1453 1460 1465 1471 1477 1481 1485 1489 1492 1494 1496
1361 1355 1351 1348 1345 1342 1343 1342 1349 1355 1360 1366 1370 1373 1378 1381 1385 1388 1391 1394 1397 1398 1402 1407 1412 1418 1423 1429 1433 1437 1442 1449 1455 1460 1466 1472 1477 1482 1486 1489 1492 1494 1495
1357 1352 1347 1344 1341 1338 1337 1337 1343 1348 1354 1360 1365 1369 1373 1378 1382 1386 1390 1394 1396 1400 1404 1409 1414 1420 1426 1431 1437 1442 1447 1452 1457 1462 1467 1473 1478 1483 1486 1489 1491 1493 1495
1355 1351 1347 1343 1339 1336 1335 1336 1336 1343 1348 1353 1359 1365 1369 1374 1379 1384 1388 1393 1397 1400 1405 1410 1417 1423 1429 1435 1442 1448 1452 1457 1460 1463 1467 1474 1480 1484 1486 1489 1490 1492 1494
1355 1351 1347 1342 1339 1336 1333 1336 1335 1337 1342 1348 1355 1360 1364 1370 1376 1382 1386 1390 1396 1400 1404 1412 1419 1426 1432 1438 1444 1450 1454 1458 1463 1468 1473 1477 1481 1485 1487 1488 1489 1491 1493
1355 1351 1348 1345 1341 1339 1335 1336 1341 1337 1340 1345 1352 1357 1363 1369 1374 1381 1386 1392 1398 1403 1408 1415 1423 1429 1435 1440 1446 1450 1456 1462 1466 1470 1475 1479 1483 1485 1486 1488 1490 1492 1492
1357 1353 1351 1348 1344 1343 1341 1337 1339 1351 1348 1352 1357 1360 1364 1370 1380 1388 1393 1396 1402 1409 1413 1420 1425 1433 1437 1441 1449 1455 1460 1466 1470 1473 1476 1481 1483 1485 1488 1490 1491 1491 1493
1361 1357 1355 1352 1349 1349 1350 1348 1346 1352 1351 1356 1368 1370 1375 1382 1387 1392 1399 1402 1404 1411 1416 1422 1429 1434 1441 1446 1452 1458 1462 1467 1472 1475 1478 1482 1485 1485 1489 1490 1492 1492 1492
1366 1363 1360 1358 1353 1355 1356 1355 1355 1358 1364 1366 1370 1377 1385 1389 1392 1398 1407 1408 1413 1417 1421 1426 1433 1439 1445 1449 1454 1459 1464 1469 1473 1476 1480 1482 1485 1486 1488 1489 1492 1491 1491
1374 1371 1367 1365 1363 1366 1367 1366 1367 1369 1370 1376 1379 1383 1384 1395 1401 1406 1412 1415 1422 1425 1426 1431 1438 1443 1448 1452 1457 1461 1465 1468 1474 1477 1481 1482 1484 1485 1486 1490 1490 1489 1489
1381 1379 1377 1375 1373 1376 1376 1377 1380 1383 1383 1386 1392 1393 1398 1404 1407 1410 1416 1422 1428 1433 1434 1438 1442 1447 1452 1458 1461 1464 1466 1470 1474 1477 1481 1481 1483 1485 1485 1489 1489 1488 1487
1386 1384 1384 1384 1385 1385 1385 1387 1389 1391 1393 1395 1399 1402 1409 1410 1413 1418 1423 1429 1433 1438 1442 1444 1447 1450 1455 1460 1464 1466 1468 1472 1474 1480 1479 1480 1483 1485 1487 1487 1486 1486 1486
1395 1394 1393 1393 1393 1394 1394 1396 1398 1400 1402 1404 1409 1411 1415 1416 1420 1426 1429 1432 1436 1440 1444 1447 1451 1454 1458 1461 1465 1467 1469 1473 1477 1477 1478 1480 1483 1484 1485 1485 1485 1485 1485
1401 1400 1401 1401 1401 1401 1402 1405 1406 1408 1410 1412 1415 1419 1420 1423 1426 1430 1434 1437 1441 1444 1448 1450 1453 1458 1460 1463 1466 1469 1472 1474 1476 1476 1479 1481 1481 1483 1483 1483 1482 1483 1483
1407 1407 1407 1407 1408 1409 1410 1411 1412 1414 1416 1419 1420 1423 1426 1428 1431 1435 1438 1442 1445 1449 1451 1453 1457 1460 1464 1467 1468 1469 1472 1474 1475 1477 1478 1479 1480 1481 1481 1481 1479 1482 1480
1412 1412 1412 1413 1414 1414 1415 1416 1417 1419 1420 1423 1425 1428 1431 1433 1436 1440 1443 1446 1448 1450 1453 1457 1459 1462 1465 1467 1469 1470 1472 1473 1474 1476 1476 1478 1478 1477 1477 1477 1478 1478 1478